| time (UTC) | temp C | wind direction | speed KPH | gust KPH | rain 1hr cm | rain 24hr cm | rain mn cm | humidity % | barometer mb |
| 20260510153100 | 3 | 349 | 0.0 | 0.0 | 0.00 | 0.28 | 0.03 | 87 | 1014.1 |
| 20260510151606 | 3 | 349 | 0.0 | 0.0 | 0.00 | 0.28 | 0.03 | 88 | 1014.0 |
| 20260510150101 | 3 | 32 | 0.0 | 0.0 | 0.00 | 0.28 | 0.03 | 87 | 1013.7 |
| 20260510144615 | 3 | 306 | 0.0 | 0.0 | 0.00 | 0.28 | 0.03 | 88 | 1013.6 |
| 20260510143053 | 3 | 306 | 0.0 | 0.0 | 0.00 | 0.28 | 0.03 | 88 | 1013.4 |
| 20260510141550 | 3 | 327 | 0.0 | 0.0 | 0.00 | 0.28 | 0.03 | 89 | 1013.2 |
| 20260510140047 | 3 | 327 | 0.0 | 0.0 | 0.00 | 0.28 | 0.03 | 91 | 1013.0 |
| 20260510134550 | 3 | 327 | 0.0 | 0.0 | 0.00 | 0.28 | 0.03 | 93 | 1012.7 |
| 20260510133042 | 3 | 328 | 0.0 | 0.0 | 0.00 | 0.28 | 0.03 | 93 | 1012.5 |
| 20260510131539 | 4 | 328 | 0.0 | 0.0 | 0.00 | 0.28 | 0.03 | 91 | 1012.2 |
| 20260510130034 | 5 | 328 | 0.0 | 0.0 | 0.00 | 0.28 | 0.03 | 90 | 1011.9 |
| 20260510124531 | 5 | 328 | 0.0 | 0.0 | 0.03 | 0.28 | 0.03 | 91 | 1011.7 |
| 20260510123033 | 5 | 328 | 0.0 | 0.0 | 0.03 | 0.28 | 0.03 | 92 | 1011.4 |
| 20260510121524 | 6 | 328 | 0.0 | 0.0 | 0.03 | 0.28 | 0.03 | 92 | 1011.2 |
| 20260510120023 | 6 | 328 | 0.0 | 0.0 | 0.03 | 0.28 | 0.03 | 93 | 1010.9 |
| 20260510114519 | 6 | 334 | 0.0 | 0.0 | 0.00 | 0.25 | 0.00 | 93 | 1010.7 |
| 20260510113020 | 6 | 323 | 0.0 | 0.0 | 0.00 | 0.25 | 0.00 | 93 | 1010.4 |
| 20260510111514 | 6 | 325 | 0.0 | 4.8 | 0.00 | 0.25 | 0.00 | 94 | 1010.1 |
| 20260510110020 | 6 | 332 | 0.0 | 0.0 | 0.00 | 0.25 | 0.25 | 94 | 1010.0 |
| 20260510104511 | 6 | 351 | 0.0 | 0.0 | 0.00 | 0.25 | 0.25 | 95 | 1009.8 |
| 20260510103007 | 6 | 352 | 0.0 | 0.0 | 0.03 | 0.25 | 0.25 | 94 | 1009.7 |
| 20260510101506 | 6 | 334 | 0.0 | 0.0 | 0.03 | 0.25 | 0.25 | 94 | 1009.4 |
| 20260510100006 | 6 | 334 | 0.0 | 0.0 | 0.03 | 0.25 | 0.25 | 94 | 1009.1 |
| 20260510094504 | 6 | 334 | 0.0 | 0.0 | 0.03 | 0.25 | 0.25 | 94 | 1008.8 |
| 20260510093119 | 7 | 333 | 0.0 | 0.0 | 0.00 | 0.23 | 0.23 | 94 | 1008.4 |
| 20260510091600 | 7 | 357 | 0.0 | 0.0 | 0.00 | 0.23 | 0.23 | 93 | 1008.0 |
| 20260510090056 | 7 | 328 | 0.0 | 0.0 | 0.03 | 0.23 | 0.23 | 93 | 1007.7 |
| 20260510084559 | 7 | 148 | 0.0 | 0.0 | 0.03 | 0.23 | 0.23 | 95 | 1007.5 |
| 20260510083054 | 7 | 347 | 0.0 | 0.0 | 0.05 | 0.23 | 0.23 | 94 | 1006.9 |
| 20260510081548 | 7 | 358 | 0.0 | 0.0 | 0.03 | 0.23 | 0.23 | 94 | 1006.5 |
| 20260510080047 | 7 | 337 | 0.0 | 0.0 | 0.03 | 0.23 | 0.23 | 94 | 1006.5 |
| 20260510074547 | 7 | 328 | 0.0 | 0.0 | 0.03 | 0.23 | 0.23 | 94 | 1006.3 |
| 20260510073046 | 7 | 312 | 1.6 | 6.4 | 0.03 | 0.20 | 0.20 | 94 | 1005.9 |
| 20260510071549 | 7 | 356 | 0.0 | 0.0 | 0.03 | 0.20 | 0.20 | 95 | 1005.6 |
| 20260510070037 | 7 | 352 | 0.0 | 0.0 | 0.03 | 0.20 | 0.20 | 96 | 1005.1 |
| 20260510064534 | 7 | 351 | 0.0 | 0.0 | 0.05 | 0.20 | 0.20 | 96 | 1004.8 |
| 20260510063031 | 7 | 325 | 0.0 | 0.0 | 0.03 | 0.18 | 0.18 | 96 | 1004.4 |
| 20260510061529 | 7 | 325 | 0.0 | 0.0 | 0.03 | 0.18 | 0.18 | 96 | 1004.1 |
| 20260510060027 | 7 | 325 | 0.0 | 0.0 | 0.03 | 0.18 | 0.18 | 96 | 1003.8 |
| 20260510054526 | 7 | 182 | 0.0 | 0.0 | 0.03 | 0.15 | 0.15 | 96 | 1003.6 |
| 20260510053044 | 7 | 178 | 0.0 | 1.6 | 0.05 | 0.15 | 0.15 | 95 | 1003.2 |
| 20260510051520 | 7 | 201 | 0.0 | 4.8 | 0.08 | 0.15 | 0.15 | 95 | 1002.9 |
| 20260510050017 | 7 | 184 | 0.0 | 6.4 | 0.10 | 0.15 | 0.15 | 95 | 1002.6 |
| 20260510044514 | 7 | 178 | 3.2 | 14.5 | 0.08 | 0.15 | 0.15 | 95 | 1002.2 |
| 20260510043014 | 7 | 139 | 4.8 | 9.7 | 0.05 | 0.10 | 0.10 | 94 | 1001.8 |
| 20260510041509 | 8 | 164 | 0.0 | 8.0 | 0.00 | 0.05 | 0.05 | 93 | 1001.5 |
| 20260510040007 | 8 | 148 | 1.6 | 12.9 | 0.00 | 0.05 | 0.05 | 90 | 1001.1 |
| 20260510034502 | 8 | 168 | 3.2 | 11.3 | 0.00 | 0.05 | 0.05 | 86 | 1000.7 |
| 20260510033113 | 8 | 178 | 3.2 | 6.4 | 0.00 | 0.05 | 0.05 | 87 | 1000.3 |
| 20260510031557 | 8 | 136 | 0.0 | 1.6 | 0.00 | 0.05 | 0.05 | 90 | 1000.0 |
| 20260510030058 | 8 | 163 | 1.6 | 6.4 | 0.03 | 0.05 | 0.05 | 90 | 999.7 |
| 20260510024553 | 8 | 191 | 4.8 | 11.3 | 0.03 | 0.05 | 0.05 | 91 | 999.4 |
| 20260510023050 | 8 | 180 | 1.6 | 4.8 | 0.03 | 0.05 | 0.05 | 93 | 999.2 |
| 20260510021551 | 8 | 169 | 1.6 | 6.4 | 0.03 | 0.05 | 0.05 | 93 | 998.8 |
| 20260510020045 | 8 | 164 | 1.6 | 4.8 | 0.03 | 0.05 | 0.05 | 93 | 998.6 |
| 20260510014544 | 8 | 152 | 1.6 | 3.2 | 0.03 | 0.05 | 0.05 | 93 | 998.2 |
| 20260510013049 | 8 | 171 | 0.0 | 6.4 | 0.03 | 0.05 | 0.05 | 93 | 998.1 |
| 20260510011544 | 8 | 169 | 0.0 | 4.8 | 0.05 | 0.05 | 0.05 | 93 | 998.0 |
| 20260510010039 | 8 | 176 | 0.0 | 4.8 | 0.03 | 0.03 | 0.03 | 90 | 997.9 |
| 20260510004538 | 8 | 173 | 3.2 | 17.7 | 0.03 | 0.03 | 0.03 | 91 | 997.8 |
| 20260510003038 | 8 | 207 | 0.0 | 4.8 | 0.03 | 0.03 | 0.03 | 92 | 998.0 |
| 20260510001538 | 8 | 218 | 6.4 | 17.7 | 0.00 | 0.00 | 0.00 | 91 | 997.8 |
| 20260510000044 | 9 | 209 | 4.8 | 11.3 | 0.00 | 0.00 | 0.00 | 90 | 997.4 |
| 20260509234529 | 8 | 163 | 8.0 | 19.3 | 0.00 | 0.00 | 0.00 | 90 | 997.1 |
| 20260509233026 | 9 | 164 | 14.5 | 27.4 | 0.00 | 0.00 | 0.00 | 89 | 997.1 |
| 20260509231523 | 10 | 167 | 8.0 | 20.9 | 0.00 | 0.00 | 0.00 | 90 | 997.0 |
| 20260509230020 | 10 | 155 | 14.5 | 24.1 | 0.00 | 0.00 | 0.00 | 87 | 996.6 |
| 20260509224517 | 10 | 124 | 1.6 | 14.5 | 0.00 | 0.00 | 0.00 | 87 | 996.5 |
| 20260509223016 | 10 | 191 | 6.4 | 16.1 | 0.00 | 0.00 | 0.00 | 89 | 996.2 |
| 20260509221515 | 11 | 169 | 9.7 | 17.7 | 0.00 | 0.00 | 0.00 | 88 | 995.3 |
| 20260509220017 | 11 | 174 | 8.0 | 22.5 | 0.00 | 0.00 | 0.00 | 89 | 994.7 |
| 20260509214509 | 11 | 161 | 11.3 | 24.1 | 0.00 | 0.00 | 0.00 | 90 | 994.4 |
| 20260509213008 | 11 | 191 | 11.3 | 27.4 | 0.00 | 0.00 | 0.00 | 87 | 994.0 |
| 20260509211501 | 12 | 148 | 4.8 | 16.1 | 0.00 | 0.00 | 0.00 | 73 | 993.5 |
| 20260509210107 | 13 | 171 | 0.0 | 4.8 | 0.00 | 0.00 | 0.00 | 65 | 992.8 |
| 20260509204555 | 12 | 144 | 0.0 | 3.2 | 0.00 | 0.00 | 0.00 | 65 | 992.1 |
| 20260509203102 | 12 | 126 | 0.0 | 1.6 | 0.00 | 0.00 | 0.00 | 65 | 991.7 |
| 20260509201552 | 12 | 247 | 0.0 | 3.2 | 0.00 | 0.00 | 0.00 | 61 | 991.6 |
| 20260509200054 | 11 | 278 | 0.0 | 1.6 | 0.00 | 0.00 | 0.00 | 64 | 991.1 |
| 20260509194552 | 12 | 279 | 0.0 | 1.6 | 0.00 | 0.00 | 0.00 | 59 | 990.8 |
| 20260509193056 | 13 | 279 | 0.0 | 1.6 | 0.00 | 0.00 | 0.00 | 54 | 990.6 |
| 20260509191600 | 15 | 308 | 1.6 | 8.0 | 0.00 | 0.00 | 0.00 | 51 | 990.4 |
| 20260509190054 | 15 | 313 | 6.4 | 16.1 | 0.00 | 0.00 | 0.00 | 52 | 990.1 |
| 20260509184558 | 14 | 346 | 4.8 | 11.3 | 0.00 | 0.00 | 0.00 | 54 | 989.9 |
| 20260509183056 | 14 | 321 | 4.8 | 11.3 | 0.00 | 0.00 | 0.00 | 54 | 989.8 |
| 20260509181547 | 14 | 347 | 8.0 | 14.5 | 0.00 | 0.00 | 0.00 | 53 | 989.6 |
| 20260509180046 | 15 | 346 | 9.7 | 17.7 | 0.00 | 0.00 | 0.00 | 51 | 989.4 |
| 20260509174600 | 15 | 347 | 8.0 | 22.5 | 0.00 | 0.00 | 0.00 | 50 | 989.4 |
| 20260509173050 | 15 | 345 | 6.4 | 14.5 | 0.00 | 0.00 | 0.00 | 51 | 989.2 |
| 20260509171544 | 15 | 310 | 8.0 | 19.3 | 0.00 | 0.00 | 0.00 | 48 | 989.1 |
| 20260509170042 | 15 | 313 | 12.9 | 20.9 | 0.00 | 0.00 | 0.00 | 48 | 988.9 |
| 20260509164538 | 13 | 344 | 8.0 | 16.1 | 0.00 | 0.00 | 0.00 | 53 | 989.0 |
| 20260509163040 | 12 | 360 | 4.8 | 8.0 | 0.00 | 0.00 | 0.00 | 60 | 989.0 |
| 20260509161535 | 12 | 358 | 4.8 | 8.0 | 0.00 | 0.00 | 0.00 | 61 | 988.8 |
| 20260509160034 | 13 | 6 | 4.8 | 11.3 | 0.00 | 0.00 | 0.00 | 59 | 989.1 |
| 20260509154533 | 13 | 341 | 8.0 | 20.9 | 0.00 | 0.00 | 0.00 | 56 | 989.0 |